Tracking 29932 objects as of 3-Dec-2024
HD Live streaming from Space Station
objects crossing your sky now

STARLINK-30328

Track STARLINK-30328 now!
10-day predictions
STARLINK-30328 is classified as:


NORAD ID: 57638
Int'l Code: 2023-122G
Perigee: 566.2 km
Apogee: 566.3 km
Inclination: 43.0 °
Period: 95.8 minutes
Semi major axis: 6937 km
RCS: Unknown
Launch date: August 17, 2023
Source: United States (US)
Launch site: AIR FORCE EASTERN TEST RANGE (AFETR)
Your satellite tracking list
Your tracking list is empty




NASA's NSSDC Master Catalog

Two Line Element Set (TLE):
1 57638U 23122G   24337.57651126 -.00000044  00000-0  11797-4 0  9999
2 57638  43.0025  72.3587 0000072  73.8356 286.2494 15.02525853 72817
Source of the keplerian elements: AFSPC